STARLINK-11233 [DTC]

Last updated on Mon Oct 14 2024 00:02:03 GMT+0000 (Coordinated Universal Time)

1 61061U 24164M 24287.32049300 .00010346 00000+0 90140-4 0 9996 2 61061 53.1572 317.2060 0001113 81.0998 279.0146 15.69711442 5979
UTC large
Height (km)
Speed (km/s)
/
Latitude / Longitude
Inclination (degrees)
Orbital Period (minutes)
Azimuth
Elevation
Range (km)
Doppler Factor

Next 0 passes for location: London (51.5072 / 0.1276)

Sorry there are no passes over London.